Volver al catálogo

STARLINK-1524

ActivoComunicacionesVLEO
NORAD 46047·PAYLOAD·🇺🇸 United States

Lanzado Aug 7, 2020 desde Cape Canaveral Space Force Station

Loading…

Próximos Pases (próximas 24 horas)

TLE

ActualizadoSource: CelesTrak SupGP

Época: Sep 14, 2026, 21:01 UTC

1 46047C 20055W   26257.87618056 -.00015090  00000+0 -48528-3 0  2579
2 46047  53.1579 313.5876 0001298  88.1926 339.0988 15.31708278    13

Sigue STARLINK-1524 en tiempo real con AllMySat

Download on the App Store